Clarksburg, WV

8:12 PM EDT on October 14, 2019 (GMT -0400)
Benedum

Weather History for KCKB - August, 2019

Change the Weather History Date:

Wednesday, August 28, 2019

  Actual Average Record
Temperature  
Mean Temperature 73 °F -  
Max Temperature 82 °F 83 °F 98 °F (1948)
Min Temperature 61 °F 60 °F 44 °F (1945)
Cooling Degree Days 8    
Growing Degree Days 23 (Base 50)    
Moisture  
Dew Point 62 °F    
Average Humidity 71    
Maximum Humidity 90    
Minimum Humidity 39    
Precipitation  
Precipitation 0.01 in - - ()
Sea Level Pressure  
Sea Level Pressure 29.91 in    
Wind  
Wind Speed 4 mph ()    
Max Wind Speed 14 mph    
Max Gust Speed 24 mph    
Visibility 9.9 miles    
Events Rain    
Averages and records for this station are not official NWS values.
T = Trace of Precipitation, MM = Missing Value Source: Averaged Metar Reports

Daily Weather History Graph

Daily Weather History Graph

Search for Another Location

Airport or City:

Astronomy

Aug. 28, 2019 Rise Set
Actual Time 6:45 AM EDT 7:58 PM EDT
Civil Twilight 6:17 AM EDT 8:25 PM EDT
Nautical Twilight 5:44 AM EDT 8:58 PM EDT
Astronomical Twilight 5:09 AM EDT 9:33 PM EDT
Moon 4:17 AM EDT (8/28) 7:07 PM EDT (8/28)
Length of Visible Light 14h 07m
Length of Day
13h 12m
Waning Crescent, 5% of the Moon is Illuminated
Aug 28
Waning Crescent
Aug 30
New
Sep 5
First Quarter
Sep 14
Full
Sep 21
Last Quarter

Hourly Weather History & Observations

Time (EDT) Temp. Heat Index Dew Point Humidity Pressure Visibility Wind Dir Wind Speed Gust Speed Precip Events Conditions
12:53 AM 70.0 °F - 66.9 °F 90% 29.89 in 10.0 mi Calm Calm - N/A   Clear
1:53 AM 71.1 °F - 66.9 °F 87% 29.89 in 10.0 mi Calm Calm - N/A   Overcast
2:53 AM 71.1 °F - 66.9 °F 87% 29.86 in 10.0 mi Calm Calm - N/A   Overcast
3:51 AM 71.6 °F - 66.2 °F 83% 29.90 in 10.0 mi Calm Calm - N/A   Overcast
3:53 AM 71.1 °F - 66.9 °F 87% 29.86 in 10.0 mi Calm Calm - N/A   Overcast
4:53 AM 71.1 °F - 66.0 °F 84% 29.85 in 10.0 mi South 4.6 mph - 0.00 in   Mostly Cloudy
5:12 AM 71.1 °F - 66.0 °F 84% 29.90 in 8.0 mi SSW 5.8 mph - 0.00 in Rain Light Rain
5:29 AM 71.1 °F - 66.0 °F 84% 29.90 in 10.0 mi South 5.8 mph - 0.01 in Rain Light Rain
5:51 AM 71.6 °F - 66.2 °F 83% 29.89 in 10.0 mi South 4.6 mph - 0.01 in   Overcast
5:53 AM 71.1 °F - 66.0 °F 84% 29.85 in 10.0 mi South 4.6 mph - 0.01 in   Overcast
6:46 AM 71.1 °F - 66.0 °F 84% 29.91 in 10.0 mi SSW 6.9 mph - N/A   Overcast
6:53 AM 71.1 °F - 66.9 °F 87% 29.87 in 10.0 mi SSW 6.9 mph - N/A   Overcast
7:53 AM 71.1 °F - 66.9 °F 87% 29.88 in 10.0 mi WNW 3.5 mph - 0.00 in   Overcast
8:53 AM 72.0 °F - 66.9 °F 84% 29.89 in 10.0 mi WNW 3.5 mph - 0.00 in   Overcast
9:00 AM 72.0 °F - 66.9 °F 84% 29.93 in 10.0 mi WNW 4.6 mph - 0.00 in Rain Light Rain
9:53 AM 73.9 °F - 66.9 °F 79% 29.90 in 10.0 mi Variable 3.5 mph - 0.00 in   Mostly Cloudy
10:53 AM 75.0 °F - 64.9 °F 71% 29.92 in 10.0 mi West 9.2 mph - N/A   Mostly Cloudy
11:08 AM 78.1 °F - 64.9 °F 64% 29.96 in 10.0 mi WNW 5.8 mph - N/A   Scattered Clouds
11:53 AM 79.0 °F - 64.9 °F 62% 29.92 in 10.0 mi Variable 5.8 mph - N/A   Mostly Cloudy
12:53 PM 80.1 °F 81.2 °F 62.1 °F 54% 29.91 in 10.0 mi West 6.9 mph - N/A   Scattered Clouds
1:53 PM 82.0 °F 82.4 °F 60.1 °F 47% 29.89 in 10.0 mi West 10.4 mph - N/A   Scattered Clouds
2:53 PM 81.0 °F 81.0 °F 57.0 °F 44% 29.88 in 10.0 mi West 13.8 mph 24.2 mph N/A   Clear
3:53 PM 82.0 °F 81.6 °F 55.9 °F 41% 29.89 in 10.0 mi West 12.7 mph 23.0 mph N/A   Partly Cloudy
4:53 PM 81.0 °F 80.5 °F 54.0 °F 39% 29.89 in 10.0 mi WNW 12.7 mph 21.9 mph N/A   Clear
5:53 PM 80.1 °F 79.9 °F 53.1 °F 39% 29.91 in 10.0 mi West 13.8 mph 18.4 mph N/A   Clear
6:53 PM 77.0 °F - 52.0 °F 42% 29.92 in 10.0 mi West 12.7 mph 18.4 mph N/A   Clear
7:53 PM 73.0 °F - 53.1 °F 49% 29.94 in 10.0 mi West 5.8 mph - N/A   Clear
8:53 PM 71.1 °F - 53.1 °F 53% 29.95 in 10.0 mi WNW 3.5 mph - N/A   Clear
9:53 PM 64.9 °F - 55.9 °F 73% 29.97 in 10.0 mi Calm Calm - N/A   Partly Cloudy
10:53 PM 64.0 °F - 55.9 °F 75% 29.98 in 10.0 mi Calm Calm - N/A   Clear
11:53 PM 61.0 °F - 55.9 °F 83% 29.99 in 10.0 mi Calm Calm - N/A   Partly Cloudy